This is the latest recevied weather packets stored in our database for station/object IZ1HMT-3. If no packets are shown the sender has not sent any weather packets the latest 10 day(s).
| Time | Temp. | Humidity | Pressure | Rain* | Wind** | Luminosity | Snow |
|---|---|---|---|---|---|---|---|
| 1787678324 | 29.44° C | 51% | 1012.2 hPa | - | - | - | - |
| 1787677720 | 29.44° C | 51% | 1012.1 hPa | - | - | - | - |
| 1787677116 | 29.44° C | 51% | 1012.2 hPa | - | - | - | - |
| 1787675908 | 30° C | 51% | 1012.3 hPa | - | - | - | - |
| 1787675303 | 30° C | 50% | 1012.1 hPa | - | - | - | - |
| 1787674095 | 30.56° C | 48% | 1012.1 hPa | - | - | - | - |
| 1787673491 | 30.56° C | 48% | 1012 hPa | - | - | - | - |
| 1787672886 | 30.56° C | 47% | 1012.2 hPa | - | - | - | - |
| 1787672282 | 30.56° C | 47% | 1012.2 hPa | - | - | - | - |
| 1787671678 | 30.56° C | 46% | 1012.2 hPa | - | - | - | - |
| 1787671074 | 30.56° C | 46% | 1012.2 hPa | - | - | - | - |
| 1787670470 | 30.56° C | 46% | 1012.1 hPa | - | - | - | - |
| 1787669866 | 31.11° C | 46% | 1012.1 hPa | - | - | - | - |
| 1787668658 | 31.11° C | 45% | 1012 hPa | - | - | - | - |
| 1787668054 | 31.67° C | 44% | 1011.9 hPa | - | - | - | - |
| 1787667449 | 31.67° C | 42% | 1012 hPa | - | - | - | - |
| 1787666845 | 32.22° C | 42% | 1011.9 hPa | - | - | - | - |
| 1787666241 | 33.33° C | 39% | 1011.8 hPa | - | - | - | - |
| 1787665033 | 33.33° C | 39% | 1011.8 hPa | - | - | - | - |
| 1787664429 | 33.89° C | 37% | 1011.8 hPa | - | - | - | - |
| 1787663825 | 31.11° C | 42% | 1011.7 hPa | - | - | - | - |
| 1787663220 | 30.56° C | 42% | 1011.8 hPa | - | - | - | - |
| 1787662616 | 31.11° C | 41% | 1011.8 hPa | - | - | - | - |
| 1787662012 | 31.67° C | 40% | 1011.7 hPa | - | - | - | - |
| 1787660803 | 32.22° C | 38% | 1011.6 hPa | - | - | - | - |
* Rain since midnight (hover to see other rain measurements)
** Current wind speed in m/s (hover to see current wind gust speed)